Regional Weather Roundup
Issued by NWS Charleston, SC

Home | Current Version | Previous Version | Text Only | Print | Product List | Glossary On
Versions: 1 2 3 4 5 6 7 8 9 10 11 12 13 14 15 16 17 18 19 20 21 22 23 24 25 26 27 28 29 30 31 32 33 34 35 36 37 38 39 40 41 42 43 44 45 46 47 48 49 50
000
ASUS42 KCHS 310925
RWRCHS

REGIONAL WEATHER ROUNDUP
NATIONAL WEATHER SERVICE CHARLESTON SC
500 AM EDT FRI OCT 31 2014

NOTE: "FAIR" INDICATES FEW OR NO CLOUDS BELOW 12,000 FEET WITH NO
SIGNIFICANT WEATHER AND/OR OBSTRUCTIONS TO VISIBILITY.

NOT ALL STATIONS ARE QUALITY CONTROLLED BY THE NATIONAL
WEATHER SERVICE. USE DATA WITH CAUTION...ESPECIALLY
DEWPOINT OBSERVATIONS.

SCZ027-030-031-034>040-042>050-311000-
...SOUTH CAROLINA...

CITY           SKY/WX    TMP DP  RH WIND       PRES   REMARKS
N CHARLESTON   PTCLDY    56  51  84 N6        29.88F
WATERFRONT PRK   N/A     61 N/A N/A N14         N/A
FORT JOHNSON   NOT AVBL
JOHNS ISLAND   PTSUNNY   59  57  94 N6        29.88S
PINOPOLIS      NOT AVBL
MONCKS CORNER  FAIR      55  54  94 NE5       29.88F
SUMMERVILLE    CLOUDY    50  50 100 CALM      29.90F
BEAUFORT MCAS    N/A    N/A N/A N/A MISG        N/A
BEAUFORT ARPT  FAIR      59  57  94 N6        29.88S
HILTON HEAD IS   N/A     61  57  88 N8        29.88F
GEORGETOWN     NOT AVBL
WALTERBORO     SUNNY     50 N/A N/A CALM      29.90S
ORANGEBURG     MOCLDY    51  45  79 NE5       29.90F
BARNWELL       FAIR      46  45  93 CALM      29.91S
AIKEN          FAIR      43  43 100 CALM      29.94S
MANNING        PTSUNNY   50 N/A N/A CALM      29.90F
KINGSTREE      NOT AVBL
COLUMBIA       CLEAR     44  40  85 CALM      29.91F
SUMTER         MOCLDY    49  45  87 NE6       29.90F
FLORENCE       CLEAR     48  45  89 N5        29.92S
MYRTLE BEACH   CLOUDY    55  48  76 N7        29.89F
N MYRTLE BEACH CLOUDY    54  50  86 N6        29.90S

$$

GAZ063-065-086>088-099>101-113>116-118-119-134-136>141-150-311000-
...GEORGIA...

CITY           SKY/WX    TMP DP  RH WIND       PRES   REMARKS
SAVANNAH ARPT  CLEAR     54  51  90 N3        29.89S FOG
HUNTER AAF     CLEAR     57  55  92 N6        29.86F
FORT STEWART   CLEAR     51  49  93 N5        29.87S
STATESBORO     NOT AVBL
SYLVANIA       SUNNY     53  52  97 CALM      29.90F
CLAXTON        FAIR      46  46 100 CALM      29.90S
THOMSON        PTCLDY    42  42 100 CALM      29.96S
AUGUSTA-BUSH   CLEAR     41  41 100 CALM      29.91F
AUGUSTA-DANIEL CLEAR     51  42  71 N8        29.91F
SWAINSBORO     FAIR      45  45 100 MISG      29.91S
VIDALIA        PTCLDY    50  45  81 CALM      29.91S
ALMA           PTCLDY    51  45  79 NW6       29.89S
WAYCROSS       CLOUDY    55  52  88 N3        29.89R
JESUP          FAIR      55  55 100 CALM      29.88F
BRUNSWICK      CLEAR     59  55  88 NW3       29.88R
SAINT SIMONS   CLEAR     61  59  93 N5        29.86S

$$

SCZ027-028-034-036>038-045-046-048>050-GAZ119-141-311000-
...LAKE AND SUPPLEMENTAL COASTAL OBSERVATIONS...

STATION/POSITION TIME  TEMP    WIND        PRES    WAVE   SWELL
                       AIR SEA DIR/SP/G            HT/PER HT/PER/DIR
                 (UTC) (F)     (DEG/KT/KT) (MB)    (FT/S) (FT/S/D)
UPR LAKE MARION  NOT AVBL
WINYAH BAY       0900   58     360/  6     1012.0S
LAKE MURRAY      0800   49      CALM  /  2 1012.9F
ACE BASIN NERRS  0900   55      10/  2     1012.0S
FORT PULASKI     0900   62     360/  8/  9 1011.7F
SAPELO ISLAND    NOT AVBL

$$

ANZ835-935-AMZ111-154-330-350-352-354-374-450-454-472-311000-
...C-MAN AND BUOY OBSERVATIONS...

STATION/POSITION TIME  TEMP    WIND        PRES    WAVE   SWELL
                       AIR SEA DIR/SP/G            HT/PER HT/PER/DIR
                 (UTC) (F)     (DEG/KT/KT) (MB)    (FT/S) (FT/S/D)
FOLLY BEACH CMAN 0900   62      10/ 13/ 16 1011.7F
BUOY 41004       0900   69 77   10/ 19/ 21 1009.4F   5/ 7   2/ 9
BUOY 41008       0900   68 74   20/ 14/ 16 1010.6F   2/ 6   2/130/ 8
5E ST. MARYS GA  0900      76                N/A     2/ 4
FRYING PAN BUOY  0900   66 73   30/ 19/ 25 1010.6F   6/ 7   2/ 10/14
BUOY 41025       0900   65      20/ 23/ 27 1010.3F   6/ 6
CAPE LOOKOUT NC  0900   60      20/ 17/ 21 1010.8F
BUOY 41002       0843   76 78  200/ 14/ 17 1009.2S   3/ 8   2/ 70/ 8
BUOY 41010       0900   76 82  360/ 12/ 14 1009.8R   4/ 8   3/100/ 8
BUOY 41012       NOT AVBL
ST AUGUSTINE FL  0900   62     300/  5/  7 1011.2R
CAPERS NEARSHORE 0800   65      30/ 17/ 21   N/A
FRIPP NEARSHORE  NOT AVBL


$$



USA.gov is the U.S. government's official web portal to all federal, state and local government web resources and services.